Regional Weather Roundup
Issued by NWS Kansas City/Pleasant Hill, MO

Home | Current Version | Previous Version | Graphics & Text | Print | Product List | Glossary Off
Versions: 1 2 3 4 5 6 7 8 9 10 11 12 13 14 15 16 17 18 19 20 21 22 23 24 25 26 27 28 29 30 31 32 33 34 35 36 37 38 39 40 41 42 43 44 45 46 47 48 49 50

000
ASUS43 KEAX 251310
RWREAX

WEATHER ROUNDUP FOR EASTERN KANSAS AND NORTHWEST MISSOURI
NATIONAL WEATHER SERVICE KANSAS CITY/PLEASANT HILL MO
800 AM CDT MON JUL 25 2016

KSZ040-057-103>105-MOZ028-029-037-043-251400-
...KANSAS CITY METROPOLITAN AREA...

CITY           SKY/WX    TMP DP  RH WIND       PRES   REMARKS
K.C. INTL      CLOUDY    73  67  81 NE9       30.06S
K.C. DOWNTOWN  CLOUDY    75  67  76 E8        30.04S
LEES SUMMIT    CLOUDY    73  70  90 NE5       30.05S
OLATHE - IXD   CLOUDY    74  70  87 NE3       30.06R
OLATHE - OJC   CLOUDY    74  69  85 E7        30.06R
LAWRENCE       CLOUDY    73  68  84 N3        30.07R

$$

MOZ001>008-011>017-020>025-030>033-038>040-044>046-053-054-251400-
...NORTHERN AND CENTRAL MISSOURI...

CITY           SKY/WX    TMP DP  RH WIND       PRES   REMARKS
ST. JOSEPH     CLOUDY    71  65  81 NE9       30.07F
MOSBY          CLOUDY    72  66  83 CALM      30.05S
WHITEMAN AFB   PTSUNNY   72  72 100 E3        30.02S
CLINTON        LGT RAIN  72  72 100 SE5       30.04R
SEDALIA        LGT RAIN  73  71  93 NE5       30.04F
WARSAW         NOT AVBL
CHILLICOTHE      N/A     74  66  76 N3        30.07S
KIRKSVILLE     MOSUNNY   72  66  81 N9        30.06F

$$

MOZ041-047>049-056>058-063>065-088>090-097-251400-
...EASTERN AND SOUTHERN MISSOURI...

CITY           SKY/WX    TMP DP  RH WIND       PRES   REMARKS
ST. LOUIS INTL CLOUDY    76  72  87 W7        30.00R
SPIRIT OF STL  CLOUDY    74  73  97 SW6       29.99R
COLUMBIA       CLOUDY    73  71  93 W6        30.02R
JEFFERSON CITY CLOUDY    74  71  91 SW3       30.03R
ROLLA          CLOUDY    72  71  97 W8        30.04R
OSAGE BEACH    TSTM      72  72 100 S6        30.07F
SPRINGFIELD    TSTM      73  70  90 NE18      30.08R VSB 1/2
BRANSON        PTSUNNY   77  68  73 CALM      30.03R
JOPLIN         MOSUNNY   76  70  82 NE10      30.04R
WEST PLAINS    TSTM      75  72  90 E8        30.08R VSB 1

$$

IAZ060-094-KSZ022-034>040-054-083-096-NEZ052-066-093-251400-
...KANSAS...SOUTHEAST NEBRASKA AND IOWA...

CITY           SKY/WX    TMP DP  RH WIND       PRES   REMARKS
TOPEKA         CLOUDY    72  69  90 NW3       30.08R
MANHATTAN      RAIN      70  69  97 CALM      30.10S FOG
EMPORIA        TSTM      71  70  96 NW7       30.11R
CHANUTE        RAIN      72  71  97 E6        30.06R FOG
WICHITA        LGT RAIN  72  68  87 NE23      30.03F
OMAHA          MOSUNNY   70  64  81 NW3       30.11R
LINCOLN        PTSUNNY   71  65  81 CALM      30.13R
FALLS CITY     CLOUDY    70  66  87 CALM      30.09R
LAMONI         CLOUDY    68  65  90 CALM      30.10R
DES MOINES     PTSUNNY   74  65  73 N7        30.08S

$$




USA.gov is the U.S. government's official web portal to all federal, state and local government web resources and services.